Location: ????
(55.5675°N, 37.6272°E)
Time: 21:27:47
(UTC+00:00)

Cosmos 2278 Rocket - Pass Details

Date: 14 April 2026
Orbit: 839 x 846 km, 71.0° (Epoch: 11 May)

Event Time Altitude Azimuth Distance (km) Brightness Sun altitude
Rises 17:08:43 0° 325° (NW) 3,419 6.6 -5.5°
Reaches altitude 10° 17:11:12 10° 328° (NNW) 2,481 5.7 -5.8°
Maximum altitude 17:16:53 70° 52° (NE) 903 2.3 -6.5°
Drops below altitude 10° 17:22:32 10° 136° (SE) 2,464 4.0 -7.2°
Enters shadow 17:23:09 - 137° (SE) 2,696 4.2 -7.3°
